TimeEST,TemperatureF,Dew PointF,Humidity,Sea Level PressureIn,VisibilityMPH,Wind Direction,Wind SpeedMPH,Gust SpeedMPH,PrecipitationIn,Events,Conditions,WindDirDegrees,DateUTC
12:14 AM,29.5,21.4,72,30.29,10.0,North,9.2,16.1,N/A,,Overcast,350,2011-12-02 05:14:00
12:34 AM,29.3,21.6,73,30.29,10.0,NNW,9.2,-,N/A,,Overcast,340,2011-12-02 05:34:00
12:54 AM,29.3,19.8,68,30.29,10.0,NNW,9.2,17.3,N/A,,Overcast,340,2011-12-02 05:54:00
1:14 AM,28.9,21.0,72,30.29,10.0,NW,11.5,17.3,N/A,,Overcast,320,2011-12-02 06:14:00
1:54 AM,28.4,20.1,71,30.30,10.0,NNW,10.4,-,N/A,,Overcast,330,2011-12-02 06:54:00
2:14 AM,28.0,19.4,70,30.30,10.0,NW,9.2,-,N/A,,Mostly Cloudy,310,2011-12-02 07:14:00
2:35 AM,28.0,18.7,68,30.31,10.0,NW,10.4,-,N/A,,Mostly Cloudy,320,2011-12-02 07:35:00
2:54 AM,27.9,17.8,66,30.32,10.0,NW,11.5,16.1,N/A,,Overcast,310,2011-12-02 07:54:00
3:14 AM,27.9,17.2,64,30.32,10.0,NNW,9.2,-,N/A,,Overcast,330,2011-12-02 08:14:00
3:35 AM,27.9,17.8,66,30.31,10.0,NNW,4.6,-,N/A,,Overcast,340,2011-12-02 08:35:00
3:54 AM,27.9,18.7,68,30.30,10.0,NNW,8.1,-,N/A,,Overcast,330,2011-12-02 08:54:00
4:14 AM,27.9,18.5,68,30.31,10.0,NNW,9.2,-,N/A,,Overcast,340,2011-12-02 09:14:00
4:34 AM,27.7,18.3,68,30.31,10.0,NNW,10.4,-,N/A,,Overcast,340,2011-12-02 09:34:00
4:54 AM,27.9,18.5,68,30.32,10.0,NW,8.1,-,N/A,,Overcast,320,2011-12-02 09:54:00
5:15 AM,27.9,18.3,67,30.33,10.0,NW,10.4,-,N/A,,Overcast,310,2011-12-02 10:15:00
5:34 AM,27.9,18.1,67,30.32,10.0,NNW,10.4,-,N/A,,Overcast,340,2011-12-02 10:34:00
5:54 AM,27.9,18.5,68,30.33,10.0,North,9.2,17.3,N/A,,Overcast,350,2011-12-02 10:54:00
6:14 AM,27.9,18.5,68,30.33,10.0,North,5.8,-,N/A,,Overcast,350,2011-12-02 11:14:00
6:34 AM,28.0,18.5,67,30.34,10.0,NNW,8.1,-,N/A,,Overcast,330,2011-12-02 11:34:00
6:54 AM,28.4,19.0,68,30.34,10.0,NNW,6.9,-,N/A,,Overcast,340,2011-12-02 11:54:00
7:14 AM,28.0,19.0,69,30.34,10.0,NW,6.9,-,N/A,,Overcast,320,2011-12-02 12:14:00
7:34 AM,28.2,18.7,67,30.35,10.0,WNW,4.6,-,N/A,,Overcast,300,2011-12-02 12:34:00
7:54 AM,28.4,18.1,65,30.36,10.0,NW,3.5,-,N/A,,Overcast,310,2011-12-02 12:54:00
8:15 AM,28.4,18.3,66,30.36,10.0,Calm,Calm,-,N/A,,Mostly Cloudy,0,2011-12-02 13:15:00
8:34 AM,28.8,18.9,67,30.36,10.0,Calm,Calm,-,N/A,,Overcast,0,2011-12-02 13:34:00
8:55 AM,29.3,19.2,66,30.37,10.0,Calm,Calm,-,N/A,,Overcast,0,2011-12-02 13:55:00
9:14 AM,29.7,19.2,65,30.38,10.0,SW,4.6,-,N/A,,Overcast,230,2011-12-02 14:14:00
9:55 AM,30.0,18.5,62,30.39,10.0,West,8.1,-,N/A,,Overcast,260,2011-12-02 14:55:00
10:14 AM,30.9,17.8,58,30.40,10.0,WNW,5.8,-,N/A,,Mostly Cloudy,290,2011-12-02 15:14:00
10:34 AM,32.2,18.7,58,30.41,10.0,West,9.2,-,N/A,,Mostly Cloudy,260,2011-12-02 15:34:00
10:54 AM,31.8,18.1,57,30.41,10.0,SW,8.1,-,N/A,,Overcast,230,2011-12-02 15:54:00
11:14 AM,31.5,18.0,57,30.42,10.0,WSW,5.8,-,N/A,,Mostly Cloudy,250,2011-12-02 16:14:00
11:34 AM,31.8,18.1,57,30.42,10.0,WSW,5.8,-,N/A,,Scattered Clouds,240,2011-12-02 16:34:00
11:54 AM,32.2,18.9,58,30.42,10.0,SSW,6.9,-,N/A,,Mostly Cloudy,200,2011-12-02 16:54:00
12:14 PM,31.8,19.2,60,30.41,10.0,SSW,4.6,-,N/A,,Overcast,200,2011-12-02 17:14:00
12:34 PM,32.2,19.0,58,30.41,10.0,WSW,8.1,-,N/A,,Mostly Cloudy,240,2011-12-02 17:34:00
12:54 PM,32.4,19.6,59,30.41,10.0,SW,11.5,-,N/A,,Scattered Clouds,230,2011-12-02 17:54:00
1:14 PM,32.4,19.6,59,30.41,10.0,SW,10.4,-,N/A,,Scattered Clouds,230,2011-12-02 18:14:00
1:35 PM,32.0,19.4,60,30.39,10.0,SW,9.2,-,N/A,,Scattered Clouds,230,2011-12-02 18:35:00
1:54 PM,32.4,19.6,59,30.39,10.0,SW,10.4,-,N/A,,Clear,230,2011-12-02 18:54:00
2:14 PM,32.0,19.8,61,30.39,10.0,SSW,4.6,-,N/A,,Clear,200,2011-12-02 19:14:00
2:35 PM,32.4,19.9,60,30.40,10.0,SW,10.4,-,N/A,,Scattered Clouds,220,2011-12-02 19:35:00
2:54 PM,32.0,20.3,62,30.39,10.0,SSW,8.1,-,N/A,,Clear,210,2011-12-02 19:54:00
3:15 PM,32.2,20.8,63,30.39,10.0,South,4.6,-,N/A,,Clear,190,2011-12-02 20:15:00
3:34 PM,32.4,20.8,63,30.39,10.0,SSW,6.9,-,N/A,,Scattered Clouds,210,2011-12-02 20:34:00
3:54 PM,31.8,20.5,63,30.40,10.0,SSW,8.1,-,N/A,,Clear,200,2011-12-02 20:54:00
4:15 PM,32.0,21.2,64,30.39,10.0,South,6.9,-,N/A,,Clear,170,2011-12-02 21:15:00
4:34 PM,31.5,21.2,66,30.39,10.0,South,4.6,-,N/A,,Clear,170,2011-12-02 21:34:00
4:54 PM,30.6,21.2,68,30.39,10.0,SE,6.9,-,N/A,,Clear,140,2011-12-02 21:54:00
5:34 PM,29.7,20.8,70,30.39,10.0,SSE,4.6,-,N/A,,Clear,150,2011-12-02 22:34:00
5:54 PM,29.7,20.7,69,30.39,10.0,SE,3.5,-,N/A,,Clear,130,2011-12-02 22:54:00
6:14 PM,29.3,20.7,70,30.40,10.0,SE,3.5,-,N/A,,Clear,130,2011-12-02 23:14:00
6:34 PM,28.9,20.7,71,30.39,10.0,SE,4.6,-,N/A,,Clear,140,2011-12-02 23:34:00
6:55 PM,28.6,20.7,72,30.39,10.0,SE,5.8,-,N/A,,Clear,140,2011-12-02 23:55:00
7:14 PM,28.8,20.7,72,30.39,10.0,SE,5.8,-,N/A,,Clear,140,2011-12-03 00:14:00
7:34 PM,27.5,20.7,75,30.39,10.0,SE,3.5,-,N/A,,Clear,130,2011-12-03 00:34:00
7:54 PM,27.3,20.7,76,30.39,10.0,Calm,Calm,-,N/A,,Clear,0,2011-12-03 00:54:00
8:14 PM,26.8,20.8,78,30.39,10.0,SE,4.6,-,N/A,,Clear,140,2011-12-03 01:14:00
8:34 PM,27.7,21.0,76,30.39,10.0,SE,5.8,-,N/A,,Clear,130,2011-12-03 01:34:00
8:54 PM,27.9,21.0,75,30.38,10.0,SE,5.8,-,N/A,,Clear,140,2011-12-03 01:54:00
9:14 PM,27.5,20.7,75,30.38,10.0,SE,4.6,-,N/A,,Clear,140,2011-12-03 02:14:00
9:34 PM,27.9,21.2,76,30.39,10.0,SSE,5.8,-,N/A,,Clear,150,2011-12-03 02:34:00
9:54 PM,28.0,21.6,77,30.39,10.0,SSE,5.8,-,N/A,,Clear,160,2011-12-03 02:54:00
10:13 PM,28.4,21.9,77,30.38,10.0,SE,3.5,-,N/A,,Clear,140,2011-12-03 03:13:00
10:34 PM,28.2,22.1,78,30.38,10.0,SE,5.8,-,N/A,,Clear,140,2011-12-03 03:34:00
10:54 PM,28.2,22.5,79,30.38,10.0,SE,3.5,-,N/A,,Clear,140,2011-12-03 03:54:00
11:14 PM,28.8,23.4,80,30.38,10.0,SSE,8.1,-,N/A,,Clear,150,2011-12-03 04:14:00
11:34 PM,28.9,23.5,80,30.37,10.0,SSE,9.2,-,N/A,,Scattered Clouds,160,2011-12-03 04:34:00
11:55 PM,29.5,23.9,80,30.37,10.0,SSE,10.4,-,N/A,,Scattered Clouds,160,2011-12-03 04:55:00